Location: Krakow
(50.0212°N, 19.9423°E)
Time: 03:01:24
(UTC+02:00)

UWE-3 - Pass Details

Date: 03 May 2024
Orbit: 569 x 652 km, 97.8° (Epoch: 23 May)

Event Time Altitude Azimuth Distance (km) Brightness Sun altitude
Rises 04:01:58 0° 7° (N) 2,900 ? -10.3°
Reaches altitude 10° 04:04:14 10° 1° (N) 2,003 ? -10.0°
Maximum altitude 04:08:19 40° 292° (WNW) 931 ? -9.5°
Enters shadow 04:12:12 12° 224° (SW) 1,931 ? -9.0°
